When you browse on this site, cookies collect data to enhance your experience and personalize the content and advertising you see.
Visit our Privacy Policy to learn more. By continuing to use the site, you agree to this use of cookies and data.
  • Em Portugal
  • Lista de países
  • Para 7 dias
  • Temperatura da água
  • Mapas de satélite
  • Mapa do tempo
  • Widgets de tempo
  • user-avatar
    Iniciar Sessão

    Previsão horária em Varna

    Hoje, 19 Novembro, Segunda-feira

    Tempo Temperatura Precipitação Vento Pressão Humidade
    00:00 +2°C° 1.8 mm 8 m/s 746 mmHg 91%
    01:00 +2°C° 1.8 mm 8 m/s 745 mmHg 92%
    02:00 +4°C° 0 mm 7 m/s 744 mmHg 94%
    03:00 +5°C° 2.3 mm 7 m/s 744 mmHg 95%
    04:00 +5°C° 2.3 mm 6 m/s 743 mmHg 96%
    05:00 +7°C° 2.3 mm 6 m/s 742 mmHg 97%
    06:00 +7°C° 1.3 mm 5 m/s 742 mmHg 97%
    07:00 +7°C° 1.3 mm 5 m/s 741 mmHg 97%
    08:00 +8°C° 0 mm 5 m/s 741 mmHg 96%
    09:00 +7°C° 0.3 mm 6 m/s 741 mmHg 92%
    10:00 +7°C° 0.3 mm 6 m/s 742 mmHg 88%
    11:00 +5°C° 0.3 mm 6 m/s 742 mmHg 84%
    12:00 +5°C° 0 mm 6 m/s 743 mmHg 81%
    13:00 +5°C° 0 mm 7 m/s 743 mmHg 79%
    14:00 +4°C° 0 mm 7 m/s 744 mmHg 76%
    15:00 +4°C° 0 mm 7 m/s 744 mmHg 79%
    16:00 +3°C° 0 mm 7 m/s 745 mmHg 81%
    17:00 +2°C° 0 mm 7 m/s 745 mmHg 83%
    18:00 +2°C° 0 mm 6 m/s 746 mmHg 84%
    19:00 +1°C° 0 mm 6 m/s 747 mmHg 85%
    20:00 +1°C° 0 mm 6 m/s 747 mmHg 86%
    21:00 +1°C° 0 mm 5 m/s 748 mmHg 87%
    22:00 +1°C° 0 mm 5 m/s 748 mmHg 88%
    23:00 0°C° 0 mm 4 m/s 749 mmHg 89%

    Amanhã, 20 Novembro, Terça-feira

    Tempo Temperatura Precipitação Vento Pressão Humidade
    00:00 0°C° 0 mm 4 m/s 749 mmHg 89%
    01:00 0°C° 0 mm 4 m/s 750 mmHg 89%
    02:00 0°C° 0 mm 4 m/s 750 mmHg 89%
    03:00 0°C° 0 mm 4 m/s 750 mmHg 89%
    04:00 0°C° 0 mm 4 m/s 750 mmHg 89%
    05:00 -1°C° 0 mm 4 m/s 750 mmHg 89%
    06:00 -1°C° 0 mm 4 m/s 751 mmHg 88%
    07:00 0°C° 0 mm 3 m/s 751 mmHg 88%
    08:00 0°C° 0 mm 3 m/s 751 mmHg 87%
    09:00 +1°C° 0 mm 3 m/s 751 mmHg 81%
    10:00 +3°C° 0 mm 3 m/s 751 mmHg 75%
    11:00 +4°C° 0 mm 3 m/s 752 mmHg 69%
    12:00 +4°C° 0 mm 3 m/s 751 mmHg 67%
    13:00 +5°C° 0 mm 3 m/s 751 mmHg 66%
    14:00 +5°C° 0 mm 3 m/s 751 mmHg 65%
    15:00 +5°C° 0 mm 3 m/s 750 mmHg 69%
    16:00 +5°C° 0 mm 4 m/s 750 mmHg 73%
    17:00 +5°C° 0 mm 4 m/s 750 mmHg 76%
    18:00 +5°C° 0.1 mm 4 m/s 750 mmHg 79%
    19:00 +5°C° 0.1 mm 4 m/s 750 mmHg 82%
    20:00 +5°C° 0.1 mm 5 m/s 750 mmHg 84%
    21:00 +5°C° 0.4 mm 5 m/s 749 mmHg 87%
    22:00 +6°C° 0.4 mm 5 m/s 749 mmHg 89%
    23:00 +6°C° 0.4 mm 5 m/s 749 mmHg 91%

    Depois de amanhã, 21 Novembro, Quarta-feira

    Tempo Temperatura Precipitação Vento Pressão Humidade
    00:00 +6°C° 0.7 mm 5 m/s 749 mmHg 92%
    01:00 +5°C° 0.7 mm 6 m/s 749 mmHg 93%
    02:00 +5°C° 0.7 mm 6 m/s 748 mmHg 94%
    03:00 +7°C° 0.9 mm 6 m/s 748 mmHg 94%
    04:00 +7°C° 0.9 mm 6 m/s 747 mmHg 94%
    05:00 +6°C° 0.9 mm 7 m/s 747 mmHg 94%
    06:00 +6°C° 1 mm 7 m/s 747 mmHg 94%
    07:00 +6°C° 1 mm 7 m/s 747 mmHg 94%
    08:00 +6°C° 1 mm 7 m/s 746 mmHg 93%
    09:00 +6°C° 1.3 mm 7 m/s 746 mmHg 93%
    10:00 +6°C° 1.3 mm 7 m/s 746 mmHg 93%
    11:00 +6°C° 1.3 mm 7 m/s 746 mmHg 93%
    12:00 +6°C° 1.1 mm 8 m/s 746 mmHg 92%
    13:00 +6°C° 1.1 mm 8 m/s 746 mmHg 92%
    14:00 +6°C° 1.1 mm 8 m/s 746 mmHg 91%
    15:00 +6°C° 0.6 mm 8 m/s 746 mmHg 91%
    16:00 +6°C° 0.6 mm 9 m/s 746 mmHg 90%
    17:00 +6°C° 0.6 mm 9 m/s 746 mmHg 90%
    18:00 +6°C° 0.8 mm 9 m/s 746 mmHg 90%
    19:00 +6°C° 0.8 mm 9 m/s 747 mmHg 89%
    20:00 +5°C° 0.8 mm 9 m/s 747 mmHg 89%
    21:00 +5°C° 0.8 mm 9 m/s 747 mmHg 89%
    22:00 +5°C° 0.8 mm 9 m/s 748 mmHg 89%
    23:00 +5°C° 0.8 mm 9 m/s 748 mmHg 89%

    22 Novembro, Quinta-feira

    Tempo Temperatura Precipitação Vento Pressão Humidade
    00:00 +5°C° 0.6 mm 9 m/s 748 mmHg 88%
    01:00 +5°C° 0.6 mm 9 m/s 748 mmHg 88%
    02:00 +3°C° 0.6 mm 9 m/s 749 mmHg 88%
    03:00 +3°C° 0.2 mm 9 m/s 749 mmHg 87%
    04:00 +3°C° 0.2 mm 9 m/s 749 mmHg 86%
    05:00 +2°C° 0.2 mm 9 m/s 749 mmHg 85%
    06:00 +2°C° 0.1 mm 9 m/s 750 mmHg 85%
    07:00 +2°C° 0.1 mm 8 m/s 750 mmHg 85%
    08:00 +2°C° 0.1 mm 8 m/s 751 mmHg 84%
    09:00 +2°C° 0.1 mm 8 m/s 751 mmHg 83%
    10:00 +2°C° 0.1 mm 8 m/s 752 mmHg 81%
    11:00 +3°C° 0.1 mm 7 m/s 752 mmHg 79%
    12:00 +3°C° 0 mm 7 m/s 752 mmHg 77%
    13:00 +3°C° 0 mm 7 m/s 752 mmHg 74%
    14:00 +4°C° 0 mm 7 m/s 752 mmHg 72%
    15:00 +3°C° 0 mm 6 m/s 752 mmHg 72%
    16:00 +2°C° 0 mm 6 m/s 752 mmHg 72%
    17:00 +2°C° 0 mm 6 m/s 753 mmHg 73%
    18:00 +1°C° 0 mm 6 m/s 753 mmHg 73%
    19:00 +1°C° 0 mm 6 m/s 753 mmHg 72%
    20:00 0°C° 0 mm 5 m/s 754 mmHg 72%
    21:00 0°C° 0 mm 5 m/s 754 mmHg 73%
    22:00 -1°C° 0 mm 5 m/s 754 mmHg 74%
    23:00 -1°C° 0 mm 5 m/s 754 mmHg 75%

    23 Novembro, Sexta-feira

    Tempo Temperatura Precipitação Vento Pressão Humidade
    00:00 -2°C° 0 mm 5 m/s 754 mmHg 76%
    01:00 -2°C° 0 mm 5 m/s 754 mmHg 77%
    02:00 -2°C° 0 mm 5 m/s 754 mmHg 78%
    03:00 -2°C° 0 mm 5 m/s 754 mmHg 79%
    04:00 -4°C° 0 mm 5 m/s 755 mmHg 80%
    05:00 -4°C° 0 mm 5 m/s 755 mmHg 81%
    06:00 -4°C° 0 mm 5 m/s 755 mmHg 80%
    07:00 -4°C° 0 mm 5 m/s 756 mmHg 80%
    08:00 -4°C° 0 mm 5 m/s 756 mmHg 80%
    09:00 -1°C° 0 mm 5 m/s 756 mmHg 75%
    10:00 0°C° 0 mm 5 m/s 757 mmHg 70%
    11:00 +1°C° 0 mm 5 m/s 757 mmHg 64%
    12:00 +2°C° 0 mm 5 m/s 757 mmHg 62%
    13:00 +2°C° 0 mm 5 m/s 757 mmHg 60%
    14:00 +3°C° 0 mm 5 m/s 756 mmHg 58%
    15:00 +2°C° 0 mm 5 m/s 757 mmHg 62%
    16:00 +1°C° 0 mm 5 m/s 757 mmHg 65%
    17:00 0°C° 0 mm 5 m/s 757 mmHg 69%
    18:00 -1°C° 0 mm 4 m/s 757 mmHg 70%
    19:00 -1°C° 0 mm 4 m/s 757 mmHg 71%
    20:00 -2°C° 0 mm 4 m/s 758 mmHg 72%
    21:00 -2°C° 0 mm 4 m/s 758 mmHg 71%
    22:00 -2°C° 0 mm 4 m/s 758 mmHg 70%
    23:00 -2°C° 0 mm 4 m/s 757 mmHg 69%

    24 Novembro, Sábado

    Tempo Temperatura Precipitação Vento Pressão Humidade
    00:00 -2°C° 0 mm 4 m/s 757 mmHg 69%
    01:00 -2°C° 0 mm 4 m/s 757 mmHg 69%
    02:00 -2°C° 0 mm 4 m/s 757 mmHg 68%
    03:00 -2°C° 0 mm 4 m/s 757 mmHg 69%
    04:00 -2°C° 0 mm 4 m/s 757 mmHg 70%
    05:00 -3°C° 0 mm 4 m/s 757 mmHg 70%
    06:00 -2°C° 0 mm 4 m/s 757 mmHg 70%
    07:00 -2°C° 0 mm 4 m/s 757 mmHg 69%
    08:00 -2°C° 0 mm 4 m/s 757 mmHg 69%
    09:00 0°C° 0 mm 3 m/s 757 mmHg 65%
    10:00 +2°C° 0 mm 3 m/s 757 mmHg 61%
    11:00 +3°C° 0 mm 3 m/s 757 mmHg 57%
    12:00 +4°C° 0 mm 3 m/s 756 mmHg 57%
    13:00 +5°C° 0 mm 3 m/s 756 mmHg 56%
    14:00 +6°C° 0 mm 2 m/s 755 mmHg 56%
    15:00 +5°C° 0 mm 2 m/s 755 mmHg 60%
    16:00 +4°C° 0 mm 2 m/s 755 mmHg 63%
    17:00 +3°C° 0 mm 2 m/s 755 mmHg 67%
    18:00 +3°C° 0 mm 2 m/s 755 mmHg 69%
    19:00 +4°C° 0 mm 1 m/s 755 mmHg 71%
    20:00 +3°C° 0 mm 1 m/s 755 mmHg 73%
    21:00 +3°C° 0 mm 1 m/s 755 mmHg 75%
    22:00 +3°C° 0 mm 1 m/s 754 mmHg 76%
    23:00 +3°C° 0 mm 1 m/s 754 mmHg 78%
    Mostrar mais